Preview of NWS' New Version of Forecast
This preview is not operational and should not be used for support decisions.

Regional Weather Roundup (RWR)

Issued by National Weather Service (NWS)

                            
000
ASUS44 KJAN 161810
RWRMS 

MISSISSIPPI HOURLY WEATHER ROUNDUP
NATIONAL WEATHER SERVICE JACKSON MS
100 PM CDT TUE APR 16 2019

NOTE: "FAIR: INDICATES FEW OR NO CLOUDS BELOW 12,000 FEET WITH NO
SIGNIFICANT WEATHER AND/OR OBSTRUCTIONS TO VISIBILITY.

MSZ001>002-007>008-010>013-018>021-025>028-034>036-161900-
NORTHWEST MISSISSIPPI
  
CITY           SKY/WX    TMP DP  RH WIND       PRES   REMARKS
BATESVILLE     FAIR      73  50  43 SW10G22   30.16F                  
CLARKSDALE     SUNNY     75  54  46 S12G21    30.15F                  
CLEVELAND      FAIR      72  57  60 S15G24    30.16F                  
GREENWOOD      FAIR      75  50  41 S10G16    30.17F                  
6HR MIN TEMP:  53; 6HR MAX TEMP:  75;                                

GREENVILLE     FAIR      73  53  49 S18       30.15F                  
6HR MIN TEMP:  51; 6HR MAX TEMP:  73;                                

OLIVE BRANCH   MOSUNNY   72  52  49 S17G29    30.14F                  
OXFORD         FAIR      73  46  38 S12G17    30.18F                  
TUNICA           N/A     72  54  53 S17       30.16F                  
WINONA         FAIR      72  52  48 SW6       30.18F                  
$$

MSZ003>006-009-014>017-022>024-029>033-037>039-161900-
NORTHEAST MISSISSIPPI
  
CITY           SKY/WX    TMP DP  RH WIND       PRES   REMARKS
ABERDEEN       FAIR      73  61  64 VRB7G14   30.20F                  
COLUMBUS AFB   FAIR      74  49  40 SW13G18   30.19F                  
6HR MIN TEMP:  47; 6HR MAX TEMP:  74;                                

CORINTH        FAIR      73  50  43 S12       30.16F                  
STARKVILLE     FAIR      73  50  43 S9        30.20F                  
TUPELO         FAIR      74  50  42 S10G18    30.18F                  
6HR MIN TEMP:  50; 6HR MAX TEMP:  74;                                

$$

MSZ040-058-161900-
CENTRAL MISSISSIPPI
  
CITY           SKY/WX    TMP DP  RH WIND       PRES   REMARKS
JACKSON INTL   FAIR      76  49  38 S10       30.18F                  
6HR MIN TEMP:  48; 6HR MAX TEMP:  76;                                

JACKSON HAWKNS FAIR      75  53  46 S9G20     30.18F                  
6HR MIN TEMP:  50; 6HR MAX TEMP:  75;                                

MADISON        FAIR      72  48  43 S8        30.18F                  
MERIDIAN KEY   FAIR      77  46  33 S12G22    30.20F                  
6HR MIN TEMP:  48; 6HR MAX TEMP:  77;                                

MERIDIAN NAS   FAIR      78  47  33 S9        30.20F                  
6HR MIN TEMP:  47; 6HR MAX TEMP:  78;                                

RAYMOND        FAIR      77  52  41 S10G18    30.17F                  
VICKSBURG VKS  CLEAR     75  50  41 S10G17    30.17F                  
$$

MSZ059>079-161900-
SOUTH MISSISSIPPI
  
CITY           SKY/WX    TMP DP  RH WIND       PRES   REMARKS
HATTIESBURG    FAIR      75  49  39 S12       30.20                   
LAUREL         CLEAR     75  51  43 S10       30.20F                  
MCCOMB         FAIR      76  47  35 S10G17    30.19F                  
6HR MIN TEMP:  47; 6HR MAX TEMP:  76;                                

NATCHEZ        FAIR      75  49  39 S7        30.17F                  
6HR MIN TEMP:  48; 6HR MAX TEMP:  75;                                

PINE BELT      FAIR      75  53  46 SE9G16    30.21F                  
6HR MIN TEMP:  47; 6HR MAX TEMP:  75;                                

$$

MSZ080>082-161900-
COASTAL MISSISSIPPI
  
CITY           SKY/WX    TMP DP  RH WIND       PRES   REMARKS
BAY ST LOUIS   MOSUNNY   73  57  56 S12       30.21F                  
BILOXI         FAIR      74  56  53 SE12      30.21F                  
6HR MIN TEMP:  55; 6HR MAX TEMP:  74;                                

PASCAGOULA     FAIR      76  53  44 SE8G17    30.21F                  
6HR MIN TEMP:  51; 6HR MAX TEMP:  76;                                

GULFPORT       FAIR      73  56  54 SE16      30.20F                  
6HR MIN TEMP:  52; 6HR MAX TEMP:  74;                                

$$

LAZ007>009-015>016-023>026-161900-
NORTHEAST LOUISIANA
  
CITY           SKY/WX    TMP DP  RH WIND       PRES   REMARKS
BASTROP        FAIR      73  51  45 S7        30.15F                  
TALLULAH/VBURG FAIR      72  54  53 S10       30.17F                  
6HR MIN TEMP:  52; 6HR MAX TEMP:  72;                                

VIDALIA        FAIR      73  53  49 S9        30.16F                  
$$